User: anonymous   Login
Location: Unspecified
(0.0000°N, 0.0000°E)
Time: 03:53:45
(UTC+00:00)
Language:

DIAMOND BLUE - Orbit

View from above orbital plane
View from above orbital plane
View from above satellite
View from above satellite

Ground track
Ground track

The orbit data is extracted from the following two-line orbital elements,

1 42786U 17036X   17230.20438219  .00000907  00000-0  44340-4 0  9991
2 42786  97.4453 289.3098 0013909  62.2550 298.0094 15.20682683  8452
Epoch (UTC): 18 August 2017 04:54:18
Eccentricity: 0.0013909
inclination: 97.4453°
perigee height: 494 km
apogee height: 513 km
right ascension of ascending node: 289.3098°
argument of perigee: 62.2550°
revolutions per day: 15.20682683
mean anomaly at epoch: 298.0094°
orbit number at epoch: 845

The dashed part of the orbit path shows where the satellite is in the earth's shadow,  

DLR